[[{"header":{"parameterUnit":"m.s-1","parameterCategory":1,"la1":30.2991,"la2":30.254,"lo1":-89.0895,"lo2":-89.0444,"dy":0.0017,"dx":0.0017,"nx":28,"ny":28,"refTime":"2026-02-09T09:00:00:Z","depth":0,"parameterNumber":2,"parameterNumberName":"U-component_of_WINDS"},"data":[0,0,0,0,0,0,0,0,0,0,0,0,0,0,0,0,0,0,0,0,0,0,0,0,0,0,0,0,0,0,0,0,0,0,0,0,0,0,0,0,0,0,0,0,0,0,0,0,0,0,0,0,0,0,0,0,0,0,0.7305,0.7306,0,0.7427,0.7429,0.743,0.747,0.747,0.7469,0.7469,0.7597,0.7601,0.7605,0,0,0,0,0,0,0,0,0,0,0,0,0,0.7108,0.7111,0.7305,0.7306,0.7308,0.7427,0.7429,0.7431,0.747,0.747,0.7469,0.7468,0.7596,0.7601,0.7606,0,0,0,0,0,0,0,0,0,0,0,0,0,0.7208,0.7112,0.7304,0.7342,0.7347,0.7427,0.7429,0.7431,0.7471,0.747,0.7469,0.7468,0.7595,0.76,0.7606,0.7659,0,0,0.7624,0.7627,0,0,0,0,0,0,0,0,0.7202,0.7215,0.7335,0.7339,0.7345,0.7433,0.7407,0.7508,0.7471,0.7424,0.7469,0.7468,0.7543,0.7554,0.7578,0.7665,0.767,0.7625,0.7628,0.7631,0.7633,0,0,0,0,0,0,0,0.7195,0.721,0.7353,0.7337,0.7343,0.7354,0.7367,0.7426,0.7487,0.7428,0.7431,0.7445,0.7546,0.7573,0.7582,0.7672,0.7625,0.763,0.7633,0.7636,0.7809,0.781,0,0,0,0,0,0,0.7182,0.7204,0.7349,0.7357,0.727,0.7358,0.7373,0.7405,0.7486,0.7498,0.7445,0.7446,0.7563,0.7575,0.7586,0.7654,0.7631,0.7636,0.764,0.7808,0.7809,0.781,0,0,0,0,0,0,0.7177,0.7194,0.7344,0.7281,0.7301,0.7362,0.7398,0.7408,0.7435,0.7499,0.7511,0.7461,0.7563,0.7578,0.764,0.7659,0.7639,0.7644,0.7806,0.7808,0.7809,0.7788,0,0,0,0,0,0,0.7171,0.7192,0.7212,0.7282,0.7305,0.7395,0.7399,0.7411,0.7444,0.7447,0.7517,0.7528,0.7563,0.7631,0.7646,0.7666,0.7649,0.7805,0.7807,0.7809,0.7788,0.7789,0.779,0,0,0,0,0,0.7164,0.7202,0.7213,0.723,0.7331,0.7396,0.741,0.7448,0.7446,0.7467,0.7508,0.7526,0.7654,0.7637,0.7655,0.7677,0.7804,0.7807,0.7809,0.7787,0.7789,0.779,0,0,0,0,0,0,0.7135,0.7212,0.7225,0.7286,0.7334,0.7403,0.7431,0.7449,0.75,0.75,0.7547,0.7562,0.7621,0.7655,0.7635,0.7732,0.773,0.7736,0.7708,0.771,0.7711,0.7702,0.7654,0,0,0,0,0,0.7135,0.7181,0.7246,0.7294,0.7318,0.737,0.74,0.7425,0.7478,0.7498,0.7545,0.7595,0.7647,0.768,0.7732,0.7793,0.7809,0.7816,0.7818,0.7818,0.7823,0.7858,0.7862,0.7818,0.7818,0.7818,0,0,0.7137,0.7185,0.7211,0.7289,0.733,0.7377,0.7387,0.7436,0.7472,0.7506,0.7568,0.7603,0.7663,0.7725,0.7755,0.7755,0.7839,0.7821,0.7821,0.7826,0.7861,0.7865,0.7869,0.7819,0.7819,0.7819,0,0,0.7164,0.7205,0.7249,0.7289,0.7349,0.7384,0.7394,0.746,0.7485,0.7547,0.7573,0.7617,0.7705,0.7747,0.7779,0.7822,0.784,0.7837,0.7844,0.7877,0.7881,0.7884,0.79,0.7905,0.7842,0.7842,0.7842,0,0.7159,0.723,0.727,0.7318,0.7352,0.7384,0.7429,0.7466,0.7541,0.7564,0.7563,0.7674,0.7717,0.7789,0.7799,0.7824,0.7839,0.783,0.7877,0.7881,0.7885,0.79,0.7905,0.7841,0.7841,0.7841,0.7841,0,0.7221,0.727,0.7299,0.7368,0.7406,0.7452,0.75,0.7533,0.7555,0.759,0.7653,0.7705,0.7767,0.7786,0.7809,0.7862,0.786,0.7868,0.7867,0.7887,0.7903,0.7909,0.784,0.784,0.784,0.7841,0,0,0.7233,0.7324,0.7334,0.7366,0.7435,0.7474,0.7522,0.7582,0.761,0.766,0.7702,0.7776,0.7783,0.782,0.7848,0.7877,0.7908,0.7881,0.7884,0.7885,0.7969,0.7963,0.7969,0.792,0.7921,0.7922,0.7964,0,0.727,0.7356,0.7393,0.7463,0.7509,0.754,0.7582,0.7629,0.7663,0.7708,0.7746,0.7797,0.7803,0.7825,0.7856,0.7897,0.7925,0.7895,0.7961,0.7962,0.7945,0.7977,0.7971,0.8008,0.7971,0.7972,0.7972,0,0.7324,0.7373,0.7447,0.751,0.7531,0.7568,0.7626,0.7668,0.7722,0.7745,0.7786,0.7812,0.7865,0.786,0.7933,0.7912,0.7941,0.7965,0.7968,0.7976,0.7969,0.7986,0.8021,0.8027,0.7982,0.7981,0.7981,0,0.7325,0.741,0.7466,0.7492,0.7567,0.7593,0.7625,0.7679,0.7712,0.7763,0.7786,0.7842,0.7873,0.7917,0.7958,0.795,0.8028,0.8026,0.8049,0.8048,0.8064,0.8063,0.8104,0.8082,0.8082,0.8082,0.8082,0,0.7362,0.7407,0.7468,0.7502,0.7552,0.7595,0.7644,0.7679,0.7726,0.7768,0.7799,0.7838,0.7889,0.7935,0.7968,0.8024,0.8038,0.8058,0.8067,0.8056,0.8053,0.8076,0.8074,0.8084,0.8083,0.8083,0.8083,0,0.7373,0.7416,0.7478,0.7543,0.7561,0.7595,0.7652,0.7687,0.7722,0.7775,0.7789,0.7845,0.79,0.7945,0.8018,0.804,0.8099,0.8109,0.808,0.8085,0.8105,0.8102,0.8163,0.8173,0.8144,0.8144,0.8144,0,0.7394,0.7428,0.7497,0.7527,0.7559,0.7607,0.7641,0.7684,0.7718,0.7783,0.781,0.7867,0.7915,0.8003,0.805,0.8106,0.8117,0.8135,0.8126,0.8114,0.8118,0.8115,0.8119,0.8136,0.8136,0.8136,0.8136,0,0.7426,0.7445,0.7493,0.7548,0.7587,0.7633,0.7679,0.7702,0.7754,0.7791,0.7847,0.7885,0.7959,0.8016,0.8077,0.8112,0.8133,0.8138,0.8146,0.8136,0.8118,0.8128,0.8083,0.8137,0.8137,0.8136,0.8136,0.8136,0.7443,0.7475,0.7528,0.758,0.7619,0.7662,0.7698,0.7736,0.7784,0.7847,0.787,0.7928,0.7982,0.8066,0.8101,0.8147,0.8149,0.8161,0.8164,0.8167,0.8165,0.811,0.8159,0.8159,0.8159,0.8159,0.8159,0,0.7477,0.7513,0.756,0.7623,0.7664,0.7679,0.7731,0.7765,0.7815,0.7863,0.791,0.7975,0.803,0.8081,0.8139,0.8167,0.8178,0.8181,0.8179,0.8187,0.816,0.8147,0.8171,0.8171,0.8171,0.8171,0.8171,0.8171,0.75,0.7555,0.758,0.7655,0.7691,0.7747,0.7776,0.7816,0.7854,0.7925,0.797,0.8003,0.8053,0.8115,0.8166,0.818,0.82,0.82,0.8217,0.8191,0.8189,0.8187,0.8175,0.8204,0.8204,0.824,0.824,0.824]},{"header":{"parameterUnit":"m.s-1","parameterCategory":1,"la1":30.2991,"la2":30.254,"lo1":-89.0895,"lo2":-89.0444,"dy":0.0017,"dx":0.0017,"nx":28,"ny":28,"refTime":"2026-02-09T09:00:00:Z","depth":0,"parameterNumber":3,"parameterNumberName":"V-component_of_WINDS"},"data":[0,0,0,0,0,0,0,0,0,0,0,0,0,0,0,0,0,0,0,0,0,0,0,0,0,0,0,0,0,0,0,0,0,0,0,0,0,0,0,0,0,0,0,0,0,0,0,0,0,0,0,0,0,0,0,0,0,0,1.1395,1.1395,0,1.1476,1.1477,1.1478,1.1493,1.1492,1.1491,1.1491,1.1573,1.1576,1.1578,0,0,0,0,0,0,0,0,0,0,0,0,0,1.125,1.1253,1.1394,1.1395,1.1397,1.1476,1.1477,1.1478,1.1493,1.1492,1.1491,1.149,1.1572,1.1575,1.1579,0,0,0,0,0,0,0,0,0,0,0,0,0,1.1321,1.1254,1.1394,1.1413,1.1416,1.1476,1.1477,1.1479,1.1493,1.1492,1.1491,1.149,1.1571,1.1575,1.1579,1.1625,0,0,1.1592,1.1594,0,0,0,0,0,0,0,0,1.1317,1.1326,1.141,1.1412,1.1415,1.1473,1.1457,1.1528,1.1493,1.1464,1.1491,1.1489,1.154,1.1547,1.1565,1.1629,1.1633,1.1592,1.1595,1.1597,1.1598,0,0,0,0,0,0,0,1.1312,1.1322,1.1427,1.1411,1.1414,1.1418,1.1426,1.147,1.1507,1.1466,1.1467,1.1477,1.1542,1.156,1.1567,1.1634,1.1592,1.1596,1.1599,1.16,1.1742,1.1743,0,0,0,0,0,0,1.1304,1.1318,1.1424,1.1429,1.1362,1.1421,1.1431,1.1456,1.1506,1.1513,1.1478,1.1477,1.1554,1.1562,1.1569,1.1629,1.1597,1.1601,1.1603,1.1741,1.1742,1.1744,0,0,0,0,0,0,1.13,1.1313,1.1421,1.1374,1.1388,1.1425,1.1452,1.1458,1.1477,1.1515,1.1521,1.149,1.1553,1.1564,1.1612,1.1632,1.1602,1.1606,1.174,1.1741,1.1743,1.1746,0,0,0,0,0,0,1.1296,1.1312,1.133,1.1374,1.1391,1.1462,1.1453,1.146,1.1484,1.1484,1.1528,1.1535,1.1553,1.1605,1.1616,1.1637,1.161,1.1738,1.174,1.1743,1.1744,1.1748,1.1751,0,0,0,0,0,1.1291,1.1326,1.133,1.1343,1.1414,1.1463,1.1472,1.1493,1.1485,1.1504,1.1529,1.1533,1.1627,1.161,1.1622,1.1645,1.1737,1.174,1.1742,1.1743,1.1747,1.1751,0,0,0,0,0,0,1.1282,1.1333,1.1338,1.1389,1.1422,1.1465,1.149,1.1497,1.1532,1.1531,1.1555,1.1565,1.1612,1.1633,1.1613,1.1693,1.1682,1.1687,1.1678,1.1682,1.1685,1.168,1.1613,0,0,0,0,0,1.1286,1.1322,1.1364,1.1405,1.1422,1.1453,1.1475,1.1488,1.1523,1.1537,1.1565,1.1599,1.1636,1.166,1.1696,1.1747,1.1758,1.1768,1.1771,1.1774,1.1779,1.1809,1.1815,1.1753,1.1753,1.1753,0,0,1.1295,1.1327,1.1348,1.1404,1.1431,1.1469,1.1464,1.1503,1.1531,1.1543,1.1591,1.1613,1.1651,1.1702,1.1725,1.1721,1.1798,1.1777,1.1779,1.1783,1.1812,1.1818,1.1823,1.1755,1.1755,1.1754,0,0,1.133,1.1357,1.1396,1.1423,1.1465,1.1485,1.1494,1.1537,1.1553,1.1601,1.1612,1.1644,1.1708,1.1736,1.1758,1.1805,1.1811,1.1816,1.1833,1.1862,1.1867,1.1871,1.1889,1.1895,1.182,1.182,1.182,0,1.1336,1.1392,1.1414,1.1453,1.1478,1.1491,1.153,1.1556,1.1606,1.1623,1.1617,1.1698,1.1725,1.1783,1.1795,1.1812,1.1823,1.1811,1.1864,1.1869,1.1873,1.1891,1.1898,1.182,1.182,1.182,1.182,0,1.1398,1.1437,1.1462,1.1513,1.154,1.1579,1.1607,1.1632,1.1643,1.1664,1.1714,1.1747,1.1791,1.1805,1.1816,1.1865,1.1861,1.1859,1.1849,1.1879,1.1897,1.1903,1.1821,1.1821,1.1821,1.1821,0,0,1.143,1.1492,1.1502,1.1525,1.1572,1.1603,1.1642,1.1686,1.1708,1.1743,1.1777,1.1831,1.183,1.1855,1.1869,1.1894,1.1932,1.189,1.1891,1.1898,1.199,1.1992,1.2,1.1935,1.1937,1.1938,1.1987,0,1.1472,1.1544,1.1565,1.1626,1.1663,1.1676,1.1711,1.1743,1.1764,1.1799,1.1822,1.186,1.1855,1.1871,1.1896,1.1922,1.1951,1.1918,1.1968,1.197,1.196,1.2008,1.2011,1.2056,1.1994,1.1995,1.1996,0,1.1531,1.1568,1.1633,1.1677,1.1693,1.1724,1.1766,1.1799,1.1836,1.185,1.1879,1.1891,1.1933,1.1919,1.1978,1.1955,1.1977,1.1993,1.1995,1.2002,1.1986,1.2018,1.207,1.2078,1.2006,1.2005,1.2004,0,1.155,1.1616,1.1664,1.1683,1.1735,1.1757,1.1779,1.1816,1.1841,1.1878,1.1895,1.1936,1.1959,1.199,1.2013,1.2,1.207,1.2058,1.2084,1.2083,1.2099,1.2098,1.2157,1.211,1.211,1.211,1.211,0,1.1596,1.1635,1.1673,1.1703,1.1748,1.1771,1.1815,1.1838,1.1871,1.1905,1.1918,1.195,1.1977,1.2013,1.2031,1.2078,1.2087,1.21,1.2105,1.21,1.2099,1.2116,1.2114,1.2112,1.2111,1.2111,1.211,0,1.1625,1.1652,1.1705,1.175,1.1763,1.1794,1.1833,1.1862,1.1883,1.1927,1.1938,1.1972,1.2015,1.2041,1.2094,1.2106,1.2159,1.2161,1.2147,1.2149,1.2174,1.2172,1.2248,1.2259,1.2203,1.2203,1.2204,0,1.1653,1.1684,1.1733,1.1758,1.1781,1.1819,1.1846,1.187,1.1897,1.1943,1.1967,1.2011,1.2048,1.2115,1.2145,1.2186,1.219,1.2214,1.2197,1.2192,1.2193,1.2192,1.2196,1.2217,1.2218,1.2218,1.2219,0,1.1701,1.1713,1.1751,1.1794,1.1826,1.1861,1.1895,1.1914,1.1945,1.1975,1.2019,1.2047,1.2103,1.2147,1.2191,1.2214,1.2222,1.2224,1.2232,1.2229,1.222,1.2227,1.2156,1.2222,1.2222,1.2222,1.2221,1.2221,1.1732,1.1761,1.18,1.1842,1.1871,1.1904,1.1934,1.196,1.1998,1.2046,1.2058,1.2105,1.2142,1.2203,1.2227,1.2264,1.226,1.2272,1.2275,1.2278,1.228,1.2212,1.2272,1.2272,1.2272,1.2272,1.2272,0,1.1782,1.1808,1.1847,1.1896,1.1929,1.1934,1.1973,1.2001,1.2042,1.2077,1.2113,1.2165,1.2207,1.224,1.2284,1.2308,1.2313,1.2319,1.2318,1.2323,1.228,1.2269,1.2314,1.2314,1.2314,1.2314,1.2314,1.2314,1.1812,1.1861,1.1878,1.1943,1.1969,1.2016,1.2038,1.2068,1.2096,1.2154,1.219,1.2211,1.2246,1.2292,1.2332,1.234,1.2357,1.2362,1.2372,1.2331,1.2326,1.2322,1.2312,1.2365,1.2365,1.2412,1.2413,1.2413]}]]